Temperature
21 20 20 21 26 29 29 29 30 29 29 28 27 27 28 28 27 26 22 21 21 20 19 20 20 20 20 20 20 20 19 19 19 19 19 18 18 18 18 18 18 18 18 18 18 18 18 18 18
20 20 21 25 29 29 29 30 30 29 29 27 27 27 27 27 24 22 21 20 20 20 19 19 20 20 20 20 20 20 19 19 19 19 19 18 18 18 18 18 18 18 18 18 17 17 17 18 17
20 21 24 29 30 29 29 30 30 29 28 27 27 27 27 26 23 21 20 20 20 20 19 19 20 20 20 20 19 19 19 19 19 19 19 18 18 18 18 18 18 18 18 18 17 17 17 17 17
21 23 26 29 30 30 30 30 30 29 28 27 28 28 25 22 22 21 20 20 20 19 19 19 20 20 20 20 19 19 19 19 19 19 18 18 18 18 18 18 18 18 18 17 17 17 17 17 17
23 26 29 30 30 30 31 30 29 30 29 28 28 28 26 21 21 20 20 20 20 20 19 19 20 19 19 19 19 19 19 19 19 19 18 18 18 18 18 18 17 17 17 17 17 17 17 17 17
26 28 30 30 30 30 31 30 30 30 29 28 27 28 25 21 21 20 20 20 20 20 19 19 19 19 19 19 19 19 19 19 19 18 18 18 18 18 17 17 17 17 17 17 17 17 17 17 17
27 29 30 30 30 30 31 30 30 30 30 28 27 28 25 21 20 20 20 20 20 20 19 18 18 19 19 19 19 19 19 19 18 18 18 18 18 18 17 17 17 17 17 17 17 17 17 17 17
26 29 30 30 30 30 31 30 30 29 30 27 26 28 26 21 20 20 19 19 19 19 19 18 18 18 18 18 19 19 19 19 18 18 18 18 18 18 17 17 17 17 17 17 17 17 17 17 17
25 29 30 30 30 31 31 30 30 28 28 27 26 26 24 21 20 19 19 19 19 19 19 19 18 18 18 18 18 18 18 18 18 18 18 18 17 17 17 17 17 17 17 17 17 17 17 17 17
27 30 31 31 31 31 30 30 30 29 29 28 26 23 21 20 19 19 19 19 18 18 18 18 18 18 18 18 17 17 17 18 17 17 17 17 17 17 17 17 17 17 17 17 17 17 17 17 17
28 29 30 31 30 30 30 30 30 30 30 29 27 24 20 20 19 19 19 19 19 18 18 18 18 18 18 18 17 17 17 17 17 17 17 17 17 17 17 17 17 17 17 16 17 16 17 17 17
29 30 29 30 30 30 30 30 30 29 29 27 26 24 21 20 20 19 19 19 19 18 18 18 18 17 17 18 18 17 17 17 17 17 17 17 17 17 17 17 16 16 17 16 16 16 16 16 16
29 30 30 30 30 30 29 30 29 28 26 25 24 23 21 20 20 19 19 18 18 18 18 17 17 17 17 18 18 17 17 17 17 17 17 17 17 17 17 17 16 17 16 16 16 16 16 16 16
29 29 30 30 30 30 30 30 29 28 25 24 23 22 21 20 19 19 18 18 18 17 17 17 17 17 18 18 17 17 17 17 17 17 17 17 17 17 17 17 17 16 16 16 16 16 16 16 16
28 30 31 31 30 30 30 30 29 27 25 24 23 22 21 20 19 18 18 17 17 17 17 17 17 17 18 17 17 17 17 17 17 17 17 17 17 17 17 17 16 16 16 16 16 16 16 16 16
30 30 30 31 30 30 30 30 29 25 25 24 23 22 20 19 19 18 18 17 17 17 17 17 17 17 17 17 17 17 17 17 17 17 17 17 17 17 17 16 16 16 16 16 16 16 16 16 16
30 30 30 30 30 30 30 30 28 26 25 25 23 22 20 19 18 18 17 17 17 17 17 17 17 17 17 17 17 17 17 17 17 17 17 17 17 17 16 16 16 16 16 16 16 16 16 16 16
29 29 29 30 30 30 30 30 29 26 25 25 23 22 20 19 18 18 17 17 17 17 17 17 17 17 17 17 17 17 17 17 17 17 17 17 17 16 16 16 16 16 16 16 16 15 15 16 16
29 29 29 30 30 30 30 29 29 27 26 25 23 22 21 20 19 18 17 17 17 17 17 17 17 17 17 17 17 17 17 17 17 17 17 17 16 16 16 16 16 16 16 15 15 15 15 16 16
28 28 29 30 30 29 29 29 29 27 26 25 24 22 21 20 19 18 17 17 17 17 17 17 17 17 17 17 17 17 17 17 17 17 17 16 16 16 16 16 16 16 15 15 15 15 16 16 16
28 29 29 29 29 29 29 29 28 27 26 24 23 23 22 20 19 18 17 17 17 16 17 17 17 17 17 17 17 17 17 17 17 16 16 16 16 16 16 16 15 15 15 15 15 15 15 16 16
28 29 29 29 29 29 29 28 29 28 27 26 25 23 22 21 20 18 17 17 17 17 16 17 17 17 17 17 17 17 17 17 17 16 16 16 16 16 16 15 15 15 15 15 15 15 15 15 16
29 29 29 29 28 29 29 28 30 28 28 27 26 24 23 21 20 19 18 17 17 17 16 16 16 17 17 17 17 17 17 17 17 16 16 16 16 16 16 15 15 15 15 15 15 15 15 15 16
29 28 28 28 29 28 29 28 29 30 28 28 27 24 22 21 20 19 18 17 17 17 16 16 16 17 17 17 17 17 17 17 17 16 16 16 16 16 16 15 15 15 15 15 15 15 15 15 15
28 28 27 27 28 28 28 28 29 29 28 28 27 25 22 21 20 19 18 17 17 16 16 16 16 17 17 17 17 17 17 17 16 16 16 16 16 16 16 15 15 15 15 15 15 15 15 15 15
28 28 27 27 27 28 28 28 29 29 28 27 26 24 23 21 21 19 18 17 17 16 16 16 16 16 17 17 17 17 17 16 16 16 16 16 16 16 16 16 15 15 15 15 15 15 15 15 15
28 29 30 29 28 28 29 29 30 28 28 27 26 24 23 22 21 20 19 18 17 17 16 17 17 17 17 17 17 17 17 16 16 16 16 16 16 16 16 16 15 15 15 15 15 15 15 15 15
29 29 29 28 27 27 28 28 29 28 28 27 26 25 24 22 21 20 19 18 18 17 17 17 16 17 17 17 16 16 17 16 16 16 16 16 16 16 16 15 15 15 15 15 15 15 15 15 15
28 28 28 29 28 27 27 28 30 29 28 28 27 25 24 23 22 21 19 19 18 17 17 17 17 16 16 16 17 16 16 16 16 16 16 16 16 16 16 15 15 15 15 15 15 15 15 15 15
29 29 28 27 27 27 27 28 29 29 29 28 27 25 24 23 22 21 20 19 18 18 17 17 17 17 17 17 17 16 16 16 16 16 16 16 16 16 16 16 16 16 15 15 15 15 15 15 15
Wind_Speed
10 7 5 4 5 2 4 5 3 3 2 2 1 1 2 3 3 3 5 16 20 21 22 22 19 18 18 17 17 17 16 16 16 15 14 13 13 12 11 11 10 10 10 10 11 11 11 12 12
6 4 5 5 4 3 5 3 2 3 3 3 2 2 1 1 3 5 9 17 21 21 22 21 21 19 18 17 17 17 16 16 15 15 14 13 12 12 11 11 10 10 10 10 10 11 11 11 12
5 6 5 4 1 3 5 3 2 1 3 3 2 1 2 2 4 5 11 20 21 20 21 22 22 20 19 18 17 17 16 16 15 14 13 13 12 12 11 11 10 10 10 10 10 10 10 11 11
5 5 5 5 1 3 2 2 1 2 4 4 3 1 2 4 3 6 16 21 22 20 21 23 22 21 19 18 17 17 16 16 15 14 13 12 12 11 11 11 10 10 10 10 10 10 10 9 9
6 5 6 4 2 2 1 3 3 4 2 3 4 1 3 4 5 11 19 21 21 20 20 23 21 21 19 18 17 17 16 15 15 14 13 12 11 11 11 10 10 10 9 9 10 9 9 8 8
5 5 5 2 3 1 0 1 3 4 3 2 3 3 3 6 9 15 18 19 19 19 19 22 21 20 19 18 17 16 15 15 14 13 12 11 11 11 10 10 10 9 9 9 9 8 8 7 7
6 5 2 0 1 1 2 1 3 4 4 4 3 3 5 8 11 16 17 17 17 18 18 19 20 19 18 17 16 16 15 14 13 12 12 11 10 10 9 9 9 9 8 8 8 8 7 6 6
5 5 4 2 1 1 2 2 3 6 4 1 4 5 3 11 14 16 16 16 16 16 17 17 18 18 17 17 16 16 15 14 13 12 11 11 10 9 9 9 9 8 8 7 7 7 6 6 6
5 6 3 0 2 3 4 5 4 4 5 5 4 2 5 16 17 17 17 16 16 15 15 15 16 16 16 16 16 16 15 13 13 12 11 10 9 9 9 9 8 7 7 7 7 6 5 5 8
5 7 2 3 5 8 8 8 7 6 8 8 6 4 10 17 18 19 19 19 19 18 16 13 14 14 14 13 15 13 13 13 11 10 11 8 6 5 7 11 8 7 7 7 6 5 6 6 6
6 7 6 7 7 10 11 10 8 10 10 7 7 9 14 17 18 18 18 18 18 18 16 14 13 12 12 10 11 10 9 10 9 9 9 7 6 6 6 7 8 7 7 6 8 7 5 3 2
7 9 9 10 11 11 11 10 8 9 7 5 1 10 16 18 18 18 18 17 16 17 16 15 14 12 11 10 9 9 8 8 8 9 9 8 5 4 4 4 4 5 4 3 3 3 3 2 2
10 9 10 11 12 10 10 9 7 6 3 1 4 11 15 16 15 14 14 14 14 15 16 15 13 12 10 8 7 8 7 7 8 8 8 6 5 5 5 3 3 3 3 4 3 3 3 3 3
7 10 12 10 7 5 6 6 5 2 1 3 6 10 12 13 13 12 13 14 14 15 15 13 13 12 11 9 7 6 7 6 7 7 8 7 5 4 4 4 4 3 3 2 3 3 3 2 2
9 11 10 4 3 3 6 7 2 1 3 5 6 8 10 11 12 12 13 14 14 14 14 13 13 12 11 10 8 7 7 8 6 7 7 7 6 5 4 4 4 3 3 4 3 3 3 3 3
9 10 7 1 2 2 7 7 3 2 4 5 6 8 9 10 11 10 11 12 13 13 13 13 12 13 11 9 8 7 7 7 6 6 7 6 5 5 5 4 4 4 4 4 3 3 3 3 3
10 8 6 3 1 5 7 8 1 2 4 5 7 8 9 10 10 10 10 11 12 13 13 13 12 13 12 10 8 7 6 6 6 6 6 6 6 6 5 3 3 5 4 4 4 3 3 3 3
6 7 7 6 5 8 8 7 2 3 5 5 7 8 9 10 11 10 10 10 11 12 13 14 13 13 12 9 8 6 6 6 5 5 5 6 6 6 5 4 4 5 4 4 3 3 2 2 3
8 9 10 8 6 8 8 8 4 3 5 6 7 8 9 9 9 9 10 10 11 12 13 14 14 13 11 9 9 8 7 6 5 5 6 6 6 6 5 4 5 5 4 4 5 4 5 4 4
11 12 11 7 4 7 9 9 4 4 5 6 7 9 9 9 9 9 10 10 11 12 13 13 14 13 13 9 8 7 7 6 5 5 6 6 6 7 7 5 5 5 4 5 5 4 4 4 4
13 12 10 10 9 8 9 9 4 4 5 6 7 8 9 10 11 11 11 11 12 12 13 12 13 13 12 11 8 8 6 5 6 6 6 6 7 7 5 6 5 5 6 5 5 5 5 4 4
13 10 9 10 11 8 5 10 4 4 6 8 8 9 10 10 10 11 11 11 12 12 12 12 13 13 13 12 12 13 10 8 8 7 6 7 7 7 7 6 5 5 4 4 5 5 4 5 5
11 6 8 9 10 12 8 9 5 3 5 7 9 9 9 10 11 11 11 11 11 12 12 12 13 12 13 13 13 12 10 8 7 7 8 7 7 7 7 6 5 5 4 4 3 4 4 5 5
7 7 8 10 10 11 7 8 7 2 2 3 8 9 10 10 11 11 10 9 9 11 11 12 12 12 12 13 13 12 11 9 9 9 9 8 7 7 7 7 5 5 4 4 4 4 5 3 3
11 11 10 10 9 8 2 6 5 2 1 2 6 10 11 11 11 11 11 11 10 11 12 12 13 12 13 14 13 13 12 11 11 11 10 9 7 7 8 7 6 5 4 5 4 4 4 4 4
14 15 12 10 8 6 4 5 3 1 2 3 5 9 11 12 11 11 12 11 11 12 12 12 12 12 13 13 13 12 12 10 10 11 9 9 7 7 8 7 7 6 6 5 5 5 5 4 4
12 14 14 12 12 11 7 5 4 3 5 6 7 9 11 12 12 12 12 12 12 13 12 12 12 12 13 13 13 13 12 11 10 10 9 8 7 7 8 8 7 7 6 6 5 4 5 5 5
11 9 8 11 10 10 8 7 4 3 5 7 9 9 10 12 12 12 13 13 12 12 12 12 12 12 12 13 12 11 12 11 10 10 10 8 8 7 8 7 7 7 7 7 7 6 6 6 5
10 10 10 10 9 10 10 5 2 2 4 7 8 10 11 13 13 13 13 13 13 13 13 12 12 12 12 12 12 11 11 11 10 9 9 8 8 8 8 7 7 7 7 7 7 7 6 7 7
11 13 12 11 11 10 11 7 2 1 3 6 8 10 11 12 13 13 13 13 13 14 13 13 12 12 12 12 11 11 10 10 10 10 9 8 8 8 8 7 7 7 7 7 7 8 8 8 8
Wind_Direction
193 205 231 247 240 204 70 67 42 50 57 65 114 262 331 345 343 38 118 154 151 151 148 152 152 149 146 143 140 136 135 135 135 134 134 131 129 126 124 120 114 110 106 105 103 103 103 105 108
193 212 238 246 261 97 82 65 54 39 68 127 162 221 285 48 54 99 141 153 154 152 151 155 151 150 147 144 142 139 137 136 135 134 133 132 130 128 125 120 115 112 108 107 105 104 104 107 110
201 236 262 254 267 44 64 67 39 88 156 188 183 254 339 48 108 137 151 157 157 153 152 149 153 151 149 146 144 141 139 139 137 135 134 133 131 127 123 119 115 112 110 109 108 106 106 110 113
221 231 242 248 113 63 13 15 331 209 184 210 231 165 103 61 110 140 151 160 157 153 154 150 155 152 151 149 147 144 142 141 139 137 134 131 129 125 122 119 114 112 110 108 107 105 106 111 116
242 255 237 201 104 74 313 305 262 234 209 204 229 249 118 105 118 142 155 161 158 157 155 151 156 153 153 151 149 147 145 142 140 138 135 131 127 124 121 118 114 112 110 109 106 104 103 110 116
239 248 239 145 95 74 326 265 231 241 242 224 239 250 112 124 141 150 158 163 161 159 154 148 155 155 154 153 152 151 147 145 143 140 136 132 126 123 122 120 117 115 111 108 107 105 102 104 113
265 259 252 331 86 100 33 341 259 258 246 235 238 249 132 144 147 154 159 162 161 161 154 152 158 158 157 156 156 153 150 147 146 143 139 135 131 127 122 119 117 115 113 112 110 108 105 104 110
273 265 225 200 276 36 21 304 290 283 274 211 219 250 155 152 153 155 157 162 163 164 160 157 162 160 162 160 159 156 153 149 148 146 144 140 138 136 132 137 122 120 117 116 114 113 108 104 110
259 249 231 288 306 323 327 296 283 271 246 217 220 270 98 144 155 157 160 164 166 167 165 165 163 162 164 161 157 160 157 154 156 156 152 163 162 150 155 122 122 128 126 123 120 119 119 131 133
240 253 274 332 309 306 305 292 278 251 243 231 207 156 138 152 162 167 170 171 172 171 170 167 165 164 166 162 158 164 165 162 172 158 162 167 150 148 131 122 132 133 135 138 132 138 166 207 155
241 265 300 300 301 299 292 286 270 259 265 261 231 180 163 164 170 175 177 176 176 173 170 167 166 168 166 160 160 163 163 162 168 160 163 157 160 157 150 150 152 154 167 164 154 181 179 167 119
254 270 282 287 299 294 288 285 275 263 285 345 249 168 169 174 177 180 180 179 176 174 172 171 168 168 170 165 161 163 166 169 166 160 170 164 168 163 151 161 153 164 162 148 166 159 148 150 159
248 276 289 290 290 290 282 274 276 280 307 49 148 164 174 178 180 182 178 175 176 175 176 172 170 167 167 164 170 164 168 169 161 163 169 172 176 174 161 159 167 180 160 170 177 165 148 166 171
280 286 286 288 292 278 274 270 255 290 87 139 154 167 175 176 177 175 174 176 176 176 174 170 172 168 168 167 171 164 167 171 168 171 168 180 182 174 176 174 180 182 183 158 172 160 163 162 135
278 278 270 253 289 297 287 255 234 69 153 160 161 164 168 174 175 177 178 178 177 176 172 172 173 170 171 170 173 168 172 175 174 163 166 179 185 176 185 181 187 180 167 163 182 163 168 170 158
253 255 256 222 307 312 286 300 78 132 182 180 170 168 171 174 178 179 179 182 179 175 172 175 174 171 172 171 171 168 174 171 170 166 164 176 179 181 194 191 182 173 185 182 170 189 177 161 167
232 249 272 280 303 311 290 306 38 179 200 190 181 178 179 176 181 181 180 182 181 178 174 176 176 172 171 171 170 166 164 168 167 166 165 171 181 183 197 189 162 187 187 186 192 168 194 170 172
247 267 278 296 321 311 296 304 306 196 211 202 188 185 185 187 188 182 179 183 181 177 175 177 175 171 168 168 163 160 164 166 167 166 161 169 176 180 190 178 178 200 186 184 180 159 183 181 193
276 276 281 293 315 304 298 303 293 221 214 208 198 191 191 191 183 178 178 180 180 175 175 179 176 174 170 170 170 170 171 170 171 171 165 169 172 175 196 189 177 209 195 191 186 188 179 189 184
256 265 273 281 306 298 298 294 268 219 221 220 207 198 194 185 179 179 181 181 183 177 179 180 180 177 177 174 170 171 164 170 169 167 162 172 176 182 190 194 192 194 182 186 188 200 203 183 197
248 257 276 294 301 262 285 278 220 198 208 209 210 203 195 190 188 184 184 186 185 183 181 181 179 177 178 167 160 156 155 164 172 170 168 173 179 185 187 188 200 189 200 181 192 197 209 202 195
247 252 270 281 285 289 298 303 281 197 212 210 205 197 194 189 186 183 184 187 189 186 182 180 178 176 174 170 173 175 178 178 181 177 168 171 182 185 181 185 188 194 196 172 199 197 212 220 211
252 267 266 273 277 281 269 286 307 191 234 213 200 193 191 187 184 182 183 183 183 181 180 178 176 177 177 179 180 181 183 179 171 170 165 177 177 182 180 183 184 189 196 185 194 184 224 223 235
238 242 247 252 260 264 278 289 300 316 280 212 188 185 184 181 180 180 178 174 174 175 176 174 174 177 177 180 183 186 182 175 171 176 174 183 178 180 181 185 185 192 190 182 191 196 202 230 245
222 236 241 240 239 257 243 275 294 349 255 228 190 182 179 178 177 176 174 173 175 177 177 176 176 179 180 182 185 186 183 180 183 184 184 186 181 179 178 183 184 187 184 187 188 195 206 205 209
221 233 245 259 266 275 220 268 310 89 180 184 175 171 174 177 177 175 174 173 173 174 175 176 178 180 181 182 183 184 184 188 189 189 186 189 187 180 171 182 187 189 191 194 194 206 203 206 218
224 232 246 257 266 276 272 270 260 192 193 186 171 169 175 176 174 173 173 173 171 172 175 178 177 178 179 180 180 183 187 192 188 182 191 189 185 178 175 185 189 192 198 204 208 216 215 211 224
241 238 231 243 256 264 265 264 281 221 206 186 180 176 174 173 173 172 173 173 173 172 175 175 177 179 178 179 182 182 184 188 186 188 189 186 184 180 179 189 194 198 202 205 215 217 212 218 223
203 218 232 245 257 267 275 281 25 277 217 194 181 174 171 171 171 170 170 171 171 171 172 177 180 179 179 180 181 180 181 181 182 186 188 187 188 185 190 196 202 207 209 209 212 225 216 221 223
234 231 227 241 247 252 272 280 98 192 195 186 173 165 165 166 166 166 167 169 171 172 173 176 178 180 179 177 174 175 175 177 182 187 189 190 192 195 198 201 207 213 214 214 218 225 224 225 229
Height
1515 1516 1516 1517 1510 1500 1501 1497 1495 1495 1496 1499 1501 1501 1500 1500 1503 1511 1513 1513 1516 1520 1522 1525 1529 1532 1535 1537 1539 1541 1543 1544 1546 1547 1549 1550 1551 1552 1553 1554 1555 1556 1557 1557 1558 1559 1559 1560 1560
1517 1517 1518 1514 1501 1503 1503 1496 1495 1495 1498 1501 1502 1502 1502 1503 1507 1510 1511 1513 1517 1521 1523 1526 1529 1533 1536 1538 1540 1542 1544 1545 1547 1549 1550 1551 1552 1553 1555 1556 1557 1558 1558 1559 1560 1560 1561 1562 1562
1517 1517 1517 1505 1499 1501 1500 1495 1494 1496 1500 1501 1502 1502 1503 1505 1508 1510 1510 1513 1518 1522 1525 1527 1530 1534 1537 1539 1541 1543 1545 1547 1548 1550 1552 1553 1554 1555 1556 1557 1558 1559 1560 1561 1561 1562 1563 1564 1564
1519 1518 1514 1503 1498 1496 1495 1493 1495 1497 1499 1501 1501 1501 1505 1508 1509 1509 1509 1513 1518 1522 1525 1527 1531 1534 1537 1540 1542 1544 1546 1548 1550 1551 1553 1554 1556 1557 1558 1559 1560 1561 1561 1562 1563 1564 1565 1566 1567
1519 1514 1504 1498 1496 1494 1494 1495 1495 1495 1496 1499 1501 1500 1504 1508 1507 1508 1510 1515 1519 1523 1527 1528 1531 1535 1538 1541 1543 1545 1547 1549 1551 1553 1554 1556 1557 1558 1559 1560 1561 1562 1563 1564 1565 1566 1566 1567 1568
1516 1508 1500 1498 1496 1494 1492 1494 1494 1494 1496 1499 1501 1500 1504 1507 1507 1509 1512 1516 1521 1524 1528 1529 1532 1535 1539 1541 1544 1546 1548 1550 1552 1554 1555 1557 1558 1559 1561 1562 1562 1563 1564 1565 1566 1567 1568 1569 1570
1514 1503 1498 1496 1496 1494 1492 1493 1493 1493 1494 1497 1500 1499 1504 1507 1508 1510 1513 1517 1521 1525 1528 1529 1532 1535 1539 1542 1545 1547 1549 1551 1553 1555 1556 1558 1559 1560 1562 1563 1564 1565 1566 1567 1568 1569 1570 1571 1572
1513 1504 1496 1494 1496 1493 1491 1493 1494 1494 1493 1498 1500 1498 1501 1505 1507 1510 1513 1517 1521 1524 1528 1530 1534 1537 1540 1542 1545 1548 1550 1552 1554 1556 1557 1559 1560 1561 1563 1564 1565 1566 1566 1567 1569 1570 1571 1572 1573
1513 1505 1496 1493 1496 1492 1491 1492 1493 1495 1495 1497 1499 1500 1501 1503 1506 1509 1513 1516 1520 1523 1527 1530 1534 1537 1540 1543 1545 1548 1550 1552 1554 1556 1558 1560 1562 1563 1564 1565 1565 1566 1567 1568 1569 1570 1572 1573 1574
1509 1499 1493 1493 1493 1492 1491 1491 1491 1492 1492 1494 1497 1500 1500 1501 1504 1507 1510 1513 1517 1521 1526 1529 1533 1536 1540 1543 1545 1548 1551 1553 1556 1557 1559 1561 1562 1564 1565 1565 1566 1567 1568 1569 1570 1571 1573 1574 1576
1505 1498 1493 1493 1493 1493 1490 1489 1489 1489 1487 1489 1493 1497 1499 1501 1503 1506 1509 1512 1516 1520 1524 1528 1531 1535 1539 1542 1545 1548 1551 1553 1555 1557 1559 1561 1562 1564 1566 1567 1567 1568 1569 1571 1571 1572 1575 1576 1576
1502 1497 1496 1494 1492 1491 1489 1487 1487 1487 1488 1491 1492 1494 1496 1499 1501 1504 1507 1511 1515 1519 1522 1526 1529 1533 1537 1541 1544 1547 1550 1552 1555 1556 1558 1560 1563 1564 1566 1566 1568 1569 1570 1570 1572 1573 1574 1575 1575
1500 1496 1494 1492 1490 1488 1488 1486 1486 1487 1489 1490 1492 1493 1495 1497 1500 1503 1506 1509 1513 1516 1520 1524 1528 1532 1535 1539 1543 1546 1549 1552 1554 1556 1557 1559 1562 1564 1565 1566 1567 1569 1570 1571 1571 1573 1573 1574 1575
1496 1495 1492 1489 1487 1486 1485 1484 1485 1486 1489 1490 1491 1493 1495 1497 1500 1502 1504 1507 1509 1513 1519 1522 1526 1530 1534 1538 1541 1545 1549 1551 1554 1555 1557 1559 1561 1563 1564 1565 1566 1568 1569 1571 1571 1572 1573 1574 1575
1497 1493 1486 1484 1485 1484 1484 1480 1481 1486 1488 1490 1491 1493 1495 1497 1499 1501 1502 1505 1508 1512 1517 1521 1525 1529 1533 1537 1541 1544 1548 1550 1553 1554 1556 1558 1560 1562 1563 1565 1566 1567 1568 1569 1570 1571 1573 1574 1575
1491 1488 1486 1482 1483 1483 1484 1481 1481 1485 1487 1488 1491 1493 1495 1497 1499 1501 1502 1505 1508 1511 1515 1519 1523 1527 1531 1535 1539 1543 1547 1549 1551 1554 1555 1557 1559 1560 1562 1564 1566 1566 1568 1569 1570 1571 1573 1574 1575
1487 1488 1486 1482 1480 1480 1480 1479 1480 1484 1485 1487 1490 1492 1495 1497 1499 1501 1502 1504 1507 1510 1513 1517 1522 1526 1530 1534 1538 1542 1545 1548 1550 1553 1555 1556 1558 1560 1561 1563 1564 1565 1567 1568 1570 1571 1572 1573 1574
1489 1488 1486 1484 1478 1478 1477 1476 1477 1482 1484 1485 1488 1491 1494 1496 1498 1500 1501 1503 1506 1509 1512 1516 1520 1524 1528 1533 1536 1540 1544 1547 1549 1551 1553 1555 1557 1559 1561 1562 1563 1565 1567 1567 1569 1570 1571 1572 1574
1488 1489 1487 1481 1477 1478 1476 1475 1475 1479 1482 1484 1486 1489 1492 1494 1497 1499 1500 1502 1504 1507 1511 1514 1518 1522 1526 1531 1535 1538 1542 1545 1548 1550 1552 1554 1556 1558 1559 1562 1562 1564 1565 1566 1568 1569 1570 1572 1573
1489 1489 1483 1478 1476 1477 1475 1473 1472 1477 1479 1482 1484 1487 1490 1493 1495 1497 1499 1501 1503 1505 1509 1512 1516 1520 1524 1529 1533 1537 1541 1544 1546 1549 1551 1553 1555 1557 1559 1560 1562 1563 1564 1565 1567 1568 1570 1571 1572
1486 1485 1482 1481 1476 1473 1475 1471 1470 1473 1478 1481 1483 1485 1488 1491 1493 1495 1497 1499 1501 1504 1507 1510 1514 1519 1523 1527 1531 1535 1539 1542 1545 1547 1549 1552 1554 1556 1557 1559 1561 1562 1563 1565 1565 1567 1569 1571 1572
1485 1477 1479 1480 1480 1474 1476 1481 1467 1467 1472 1476 1479 1482 1485 1489 1491 1494 1496 1498 1500 1502 1505 1508 1512 1516 1520 1525 1529 1533 1536 1539 1543 1546 1548 1550 1553 1554 1556 1558 1559 1560 1563 1563 1565 1566 1568 1569 1571
1477 1475 1478 1478 1478 1478 1472 1477 1466 1464 1468 1469 1474 1478 1482 1486 1489 1492 1494 1495 1498 1500 1503 1506 1510 1514 1518 1522 1527 1531 1535 1538 1542 1544 1546 1549 1551 1553 1555 1557 1558 1559 1561 1562 1563 1564 1566 1568 1570
1475 1478 1478 1476 1474 1484 1473 1478 1471 1458 1462 1464 1470 1476 1480 1483 1487 1490 1492 1494 1496 1499 1502 1505 1508 1512 1516 1520 1524 1529 1533 1536 1539 1542 1545 1548 1550 1552 1554 1555 1557 1558 1560 1561 1562 1563 1565 1566 1568
1475 1482 1487 1488 1484 1480 1469 1475 1467 1458 1460 1463 1467 1473 1478 1481 1485 1487 1490 1492 1495 1497 1500 1503 1506 1510 1514 1518 1522 1526 1531 1534 1538 1541 1544 1547 1550 1551 1552 1555 1556 1558 1559 1560 1561 1562 1564 1565 1566
1470 1473 1486 1492 1486 1473 1468 1471 1459 1457 1461 1464 1467 1471 1475 1479 1482 1485 1488 1491 1493 1496 1498 1501 1504 1508 1512 1516 1520 1525 1529 1533 1537 1540 1543 1546 1549 1551 1552 1553 1555 1557 1558 1559 1560 1562 1563 1563 1564
1467 1467 1460 1470 1473 1478 1467 1461 1454 1456 1459 1462 1466 1470 1473 1476 1480 1484 1487 1490 1493 1495 1497 1500 1503 1507 1510 1514 1518 1523 1527 1531 1535 1538 1541 1545 1547 1549 1550 1552 1554 1556 1557 1558 1559 1561 1561 1562 1563
1459 1458 1465 1471 1484 1485 1472 1464 1458 1455 1456 1459 1463 1467 1471 1475 1479 1482 1486 1489 1492 1494 1497 1500 1503 1506 1510 1514 1517 1521 1525 1529 1533 1536 1539 1543 1545 1547 1550 1551 1553 1554 1556 1556 1557 1559 1559 1560 1560
1463 1464 1463 1462 1464 1477 1479 1466 1446 1450 1452 1455 1460 1465 1469 1473 1477 1481 1484 1488 1491 1494 1497 1499 1503 1506 1509 1512 1516 1520 1523 1527 1530 1534 1538 1541 1543 1546 1548 1550 1551 1553 1554 1555 1556 1557 1557 1558 1558
1452 1454 1458 1469 1469 1466 1469 1462 1444 1448 1450 1454 1458 1463 1467 1471 1475 1480 1483 1487 1490 1493 1496 1499 1502 1505 1508 1511 1514 1518 1521 1525 1529 1533 1536 1539 1541 1544 1546 1548 1550 1551 1552 1553 1553 1554 1555 1555 1556